Time,TemperatureF,DewpointF,PressureIn,WindDirection,WindDirectionDegrees,WindSpeedMPH,WindSpeedGustMPH,Humidity,HourlyPrecipIn,Conditions,Clouds,dailyrainin,SoftwareType,DateUTC
2013-11-15 00:05:00,30.7,26.1,29.99,East,92,1.0,1.0,83,0.00,,,0.00,Wunderground v.1.15,2013-11-15 05:05:00,
2013-11-15 00:16:00,30.7,26.1,29.99,East,92,0.0,0.0,83,0.00,,,0.00,Wunderground v.1.15,2013-11-15 05:16:00,
2013-11-15 00:26:00,31.0,26.1,29.99,East,92,0.0,0.0,82,0.00,,,0.00,Wunderground v.1.15,2013-11-15 05:26:00,
2013-11-15 00:35:00,31.3,26.1,30.00,East,92,0.0,0.0,81,0.00,,,0.00,Wunderground v.1.15,2013-11-15 05:35:00,
2013-11-15 00:46:00,31.2,26.3,30.00,East,92,0.0,0.0,82,0.00,,,0.00,Wunderground v.1.15,2013-11-15 05:46:00,
2013-11-15 01:05:00,30.4,25.9,30.00,East,92,1.0,1.0,83,0.00,,,0.00,Wunderground v.1.15,2013-11-15 06:05:00,
2013-11-15 01:16:00,30.6,26.3,30.00,East,92,2.0,2.0,84,0.00,,,0.00,Wunderground v.1.15,2013-11-15 06:16:00,
2013-11-15 01:26:00,31.2,26.6,30.00,East,92,0.0,0.0,83,0.00,,,0.00,Wunderground v.1.15,2013-11-15 06:26:00,
2013-11-15 02:06:00,30.1,25.8,30.01,East,92,0.0,0.0,84,0.00,,,0.00,Wunderground v.1.15,2013-11-15 07:06:00,
2013-11-15 02:26:00,30.3,26.0,30.01,East,92,0.0,1.0,84,0.00,,,0.00,Wunderground v.1.15,2013-11-15 07:26:00,
2013-11-15 02:35:00,30.6,26.3,30.00,East,92,0.0,1.0,84,0.00,,,0.00,Wunderground v.1.15,2013-11-15 07:35:00,
2013-11-15 02:45:00,30.6,26.3,30.01,East,92,0.0,0.0,84,0.00,,,0.00,Wunderground v.1.15,2013-11-15 07:45:00,
2013-11-15 02:56:00,30.7,26.1,30.01,East,92,0.0,0.0,83,0.00,,,0.00,Wunderground v.1.15,2013-11-15 07:56:00,
2013-11-15 03:35:00,30.1,25.8,30.02,East,92,0.0,0.0,84,0.00,,,0.00,Wunderground v.1.15,2013-11-15 08:35:00,
2013-11-15 03:45:00,30.3,26.0,30.01,East,92,1.0,1.0,84,0.00,,,0.00,Wunderground v.1.15,2013-11-15 08:45:00,
2013-11-15 03:56:00,30.1,25.8,30.01,East,92,0.0,0.0,84,0.00,,,0.00,Wunderground v.1.15,2013-11-15 08:56:00,
2013-11-15 04:55:00,29.3,25.6,30.02,East,92,0.0,0.0,86,0.00,,,0.00,Wunderground v.1.15,2013-11-15 09:55:00,
2013-11-15 05:06:00,29.5,25.5,30.02,East,92,0.0,1.0,85,0.00,,,0.00,Wunderground v.1.15,2013-11-15 10:06:00,
2013-11-15 05:35:00,30.3,24.9,30.01,WNW,300,0.0,2.0,80,0.00,,,0.00,Wunderground v.1.15,2013-11-15 10:35:00,
2013-11-15 05:45:00,31.3,24.6,30.02,WNW,300,0.0,0.0,76,0.00,,,0.00,Wunderground v.1.15,2013-11-15 10:45:00,
2013-11-15 05:56:00,31.8,24.5,30.02,WNW,285,1.0,1.0,74,0.00,,,0.00,Wunderground v.1.15,2013-11-15 10:56:00,
2013-11-15 06:35:00,37.9,23.2,30.02,WSW,252,3.0,8.0,55,0.00,,,0.00,Wunderground v.1.15,2013-11-15 11:35:00,
2013-11-15 06:46:00,35.5,21.8,30.03,SW,236,2.0,2.0,57,0.00,,,0.00,Wunderground v.1.15,2013-11-15 11:46:00,
2013-11-15 06:56:00,34.6,23.7,30.03,SW,236,1.0,1.0,64,0.00,,,0.00,Wunderground v.1.15,2013-11-15 11:56:00,
2013-11-15 07:06:00,37.6,21.1,30.04,SW,236,0.0,0.0,51,0.00,,,0.00,Wunderground v.1.15,2013-11-15 12:06:00,
2013-11-15 07:16:00,35.3,23.2,30.04,SW,236,1.0,2.0,61,0.00,,,0.00,Wunderground v.1.15,2013-11-15 12:16:00,
2013-11-15 07:35:00,34.1,23.2,30.05,SE,133,1.0,1.0,64,0.00,,,0.00,Wunderground v.1.15,2013-11-15 12:35:00,
2013-11-15 07:46:00,34.1,23.2,30.05,SE,133,1.0,1.0,64,0.00,,,0.00,Wunderground v.1.15,2013-11-15 12:46:00,
2013-11-15 07:56:00,34.1,23.6,30.05,SE,146,2.0,2.0,65,0.00,,,0.00,Wunderground v.1.15,2013-11-15 12:56:00,
2013-11-15 08:35:00,35.0,23.7,30.06,ESE,107,2.0,2.0,63,0.00,,,0.00,Wunderground v.1.15,2013-11-15 13:35:00,
2013-11-15 08:45:00,35.2,22.7,30.06,ESE,107,1.0,1.0,60,0.00,,,0.00,Wunderground v.1.15,2013-11-15 13:45:00,
2013-11-15 08:56:00,35.3,22.4,30.06,ESE,107,2.0,3.0,59,0.00,,,0.00,Wunderground v.1.15,2013-11-15 13:56:00,
2013-11-15 09:25:00,35.8,21.2,30.06,ESE,109,3.0,3.0,55,0.00,,,0.00,Wunderground v.1.15,2013-11-15 14:25:00,
2013-11-15 10:05:00,38.2,20.7,30.05,SE,127,3.0,3.0,49,0.00,,,0.00,Wunderground v.1.15,2013-11-15 15:05:00,
2013-11-15 10:16:00,39.1,21.0,30.06,SE,126,2.0,2.0,48,0.00,,,0.00,Wunderground v.1.15,2013-11-15 15:16:00,
2013-11-15 10:36:00,39.5,21.4,30.06,ESE,121,4.0,4.0,48,0.00,,,0.00,Wunderground v.1.15,2013-11-15 15:36:00,
2013-11-15 11:06:00,40.6,21.9,30.04,SE,134,1.0,2.0,47,0.00,,,0.00,Wunderground v.1.15,2013-11-15 16:06:00,
2013-11-15 11:36:00,42.2,21.8,30.04,SE,139,2.0,3.0,44,0.00,,,0.00,Wunderground v.1.15,2013-11-15 16:36:00,
2013-11-15 12:06:00,42.8,21.8,30.04,ESE,120,4.0,4.0,43,0.00,,,0.00,Wunderground v.1.15,2013-11-15 17:06:00,
2013-11-15 12:36:00,44.1,23.0,30.03,ESE,123,2.0,3.0,43,0.00,,,0.00,Wunderground v.1.15,2013-11-15 17:36:00,
2013-11-15 13:06:00,44.6,22.3,30.02,SE,125,4.0,4.0,41,0.00,,,0.00,Wunderground v.1.15,2013-11-15 18:06:00,
2013-11-15 13:16:00,45.1,22.2,30.02,SE,128,2.0,2.0,40,0.00,,,0.00,Wunderground v.1.15,2013-11-15 18:16:00,
2013-11-15 13:35:00,45.7,22.1,30.02,SE,128,1.0,1.0,39,0.00,,,0.00,Wunderground v.1.15,2013-11-15 18:35:00,
2013-11-15 13:46:00,45.8,21.6,30.01,SE,128,2.0,4.0,38,0.00,,,0.00,Wunderground v.1.15,2013-11-15 18:46:00,
2013-11-15 13:56:00,46.2,22.6,30.01,SE,128,2.0,2.0,39,0.00,,,0.00,Wunderground v.1.15,2013-11-15 18:56:00,
2013-11-15 14:06:00,48.5,20.7,30.01,SSE,150,1.0,5.0,33,0.00,,,0.00,Wunderground v.1.15,2013-11-15 19:06:00,
2013-11-15 14:35:00,47.6,21.9,30.00,SE,142,1.0,1.0,36,0.00,,,0.00,Wunderground v.1.15,2013-11-15 19:35:00,
2013-11-15 14:46:00,47.4,21.1,30.01,SE,145,2.0,2.0,35,0.00,,,0.00,Wunderground v.1.15,2013-11-15 19:46:00,
2013-11-15 15:05:00,46.7,20.5,30.00,SE,126,2.0,4.0,35,0.00,,,0.00,Wunderground v.1.15,2013-11-15 20:05:00,
2013-11-15 15:16:00,46.8,20.6,30.01,ESE,107,4.0,4.0,35,0.00,,,0.00,Wunderground v.1.15,2013-11-15 20:16:00,
2013-11-15 15:35:00,47.0,20.0,30.02,ESE,115,3.0,3.0,34,0.00,,,0.00,Wunderground v.1.15,2013-11-15 20:35:00,
2013-11-15 15:46:00,46.7,19.1,30.03,ESE,115,2.0,3.0,33,0.00,,,0.00,Wunderground v.1.15,2013-11-15 20:46:00,
2013-11-15 15:56:00,46.7,19.1,30.03,ESE,115,3.0,3.0,33,0.00,,,0.00,Wunderground v.1.15,2013-11-15 20:56:00,
2013-11-15 16:15:00,46.7,18.4,30.03,SSE,161,2.0,2.0,32,0.00,,,0.00,Wunderground v.1.15,2013-11-15 21:15:00,
2013-11-15 16:26:00,46.5,17.4,30.03,SSE,161,1.0,1.0,31,0.00,,,0.00,Wunderground v.1.15,2013-11-15 21:26:00,
2013-11-15 16:56:00,44.5,19.2,30.04,SE,143,1.0,1.0,36,0.00,,,0.00,Wunderground v.1.15,2013-11-15 21:56:00,
2013-11-15 17:05:00,44.5,19.2,30.05,SE,143,0.0,0.0,36,0.00,,,0.00,Wunderground v.1.15,2013-11-15 22:05:00,
2013-11-15 17:16:00,44.5,19.2,30.05,SE,143,0.0,0.0,36,0.00,,,0.00,Wunderground v.1.15,2013-11-15 22:16:00,
2013-11-15 17:35:00,44.1,18.8,30.05,SE,143,1.0,1.0,36,0.00,,,0.00,Wunderground v.1.15,2013-11-15 22:35:00,
2013-11-15 17:46:00,44.1,18.8,30.05,SE,143,0.0,0.0,36,0.00,,,0.00,Wunderground v.1.15,2013-11-15 22:46:00,
2013-11-15 18:05:00,41.8,19.2,30.06,SE,143,0.0,2.0,40,0.00,,,0.00,Wunderground v.1.15,2013-11-15 23:05:00,
2013-11-15 18:16:00,41.8,18.0,30.05,SE,143,1.0,1.0,38,0.00,,,0.00,Wunderground v.1.15,2013-11-15 23:16:00,
2013-11-15 18:36:00,40.9,20.1,30.06,SE,143,0.0,0.0,43,0.00,,,0.00,Wunderground v.1.15,2013-11-15 23:36:00,
2013-11-15 18:46:00,40.8,20.5,30.06,SE,143,0.0,0.0,44,0.00,,,0.00,Wunderground v.1.15,2013-11-15 23:46:00,
2013-11-15 19:05:00,40.8,20.5,30.07,SE,143,0.0,0.0,44,0.00,,,0.00,Wunderground v.1.15,2013-11-16 00:05:00,
2013-11-15 19:16:00,39.6,21.5,30.07,SE,143,0.0,0.0,48,0.00,,,0.00,Wunderground v.1.15,2013-11-16 00:16:00,
2013-11-15 19:35:00,38.0,21.0,30.07,SE,143,0.0,0.0,50,0.00,,,0.00,Wunderground v.1.15,2013-11-16 00:35:00,
2013-11-15 19:46:00,37.8,20.8,30.08,SE,143,0.0,0.0,50,0.00,,,0.00,Wunderground v.1.15,2013-11-16 00:46:00,
2013-11-15 19:56:00,38.2,19.7,30.08,SE,143,0.0,0.0,47,0.00,,,0.00,Wunderground v.1.15,2013-11-16 00:56:00,
2013-11-15 20:15:00,38.5,20.0,30.08,SE,143,0.0,2.0,47,0.00,,,0.00,Wunderground v.1.15,2013-11-16 01:15:00,
2013-11-15 20:26:00,37.5,20.5,30.08,SE,143,1.0,1.0,50,0.00,,,0.00,Wunderground v.1.15,2013-11-16 01:26:00,
2013-11-15 20:35:00,38.0,19.5,30.09,SE,143,0.0,2.0,47,0.00,,,0.00,Wunderground v.1.15,2013-11-16 01:35:00,
2013-11-15 20:46:00,37.9,19.4,30.09,SE,143,1.0,1.0,47,0.00,,,0.00,Wunderground v.1.15,2013-11-16 01:46:00,
2013-11-15 21:05:00,37.6,19.7,30.08,SE,143,0.0,0.0,48,0.00,,,0.00,Wunderground v.1.15,2013-11-16 02:05:00,
2013-11-15 21:16:00,37.0,19.6,30.09,SE,143,0.0,0.0,49,0.00,,,0.00,Wunderground v.1.15,2013-11-16 02:16:00,
2013-11-15 21:26:00,37.8,19.3,30.09,SE,143,0.0,0.0,47,0.00,,,0.00,Wunderground v.1.15,2013-11-16 02:26:00,
2013-11-15 21:45:00,38.3,18.8,30.08,SE,143,1.0,2.0,45,0.00,,,0.00,Wunderground v.1.15,2013-11-16 02:45:00,
2013-11-15 21:56:00,36.9,20.0,30.08,SE,143,1.0,1.0,50,0.00,,,0.00,Wunderground v.1.15,2013-11-16 02:56:00,
2013-11-15 22:15:00,37.2,18.3,30.09,South,173,2.0,3.0,46,0.00,,,0.00,Wunderground v.1.15,2013-11-16 03:15:00,
2013-11-15 22:26:00,37.0,18.6,30.09,South,173,2.0,2.0,47,0.00,,,0.00,Wunderground v.1.15,2013-11-16 03:26:00,
2013-11-15 22:35:00,36.0,20.1,30.10,South,173,1.0,2.0,52,0.00,,,0.00,Wunderground v.1.15,2013-11-16 03:35:00,
2013-11-15 22:46:00,36.2,19.8,30.10,South,173,1.0,1.0,51,0.00,,,0.00,Wunderground v.1.15,2013-11-16 03:46:00,
2013-11-15 22:56:00,37.2,19.3,30.10,South,169,1.0,2.0,48,0.00,,,0.00,Wunderground v.1.15,2013-11-16 03:56:00,
2013-11-15 23:25:00,34.6,20.5,30.10,SSE,158,1.0,1.0,56,0.00,,,0.00,Wunderground v.1.15,2013-11-16 04:25:00,
2013-11-15 23:35:00,34.4,19.9,30.11,SSE,158,0.0,0.0,55,0.00,,,0.00,Wunderground v.1.15,2013-11-16 04:35:00,
2013-11-15 23:46:00,34.7,20.2,30.11,SSE,158,0.0,1.0,55,0.00,,,0.00,Wunderground v.1.15,2013-11-16 04:46:00,
2013-11-15 23:56:00,35.6,19.7,30.11,SSE,158,1.0,2.0,52,0.00,,,0.00,Wunderground v.1.15,2013-11-16 04:56:00,